sat.trackr.live / text

‹ back to catalog

STARLINK-33822

NORAD 63658 · 2025-083AA

PAYLOAD ACTIVE UNKNOWN

§ Identity

Operator
Country
US
Launch date
2025-04-25
Launch site
AFETR
Launch vehicle
Mass (kg)
RCS (m²)

Purposes: comms

External: N2YO · Heavens-Above · Gunter

§ Orbital elements

Epoch: 2026-09-20T22:11:30.569568Z

Period
94.27 min
Inclination
43.0006°
Eccentricity
0.0002089
Mean motion
15.27587509 rev/d
Perigee alt
481.6 km
Apogee alt
484.5 km
Semi-major
6,861.2 km
B*
3.5629e-4
RAAN
342.7814°
Arg perigee
267.6655°
Mean anomaly
92.3957°
Rev number
7,995

§ Raw data

STARLINK-338221 63658U 25083AA  26263.92465937  .00009557  00000+0  35629-3 0  99932 63658  43.0006 342.7814 0002089 267.6655  92.3957 15.27587509 79952

JSON: /api/v1/satellites/63658 · /tle

For live sub-satellite position, see the globe view (requires WebGL).

§ Visibility from observer

Set your observer location to see the next 7 days of passes ≥ 10°. The values pass through the URL so the page stays shareable.

No JS? Fill the form by hand. The geolocation button needs JavaScript.